Weather History for Christmas Island, IS

Change the Weather History Date:

Friday, November 29, 2013

  Actual Average Record
Temperature  
Mean Temperature 76 °F -  
Max Temperature 82 °F 78 °F 84 °F (2010)
Min Temperature 70 °F 70 °F 69 °F (2002)
Cooling Degree Days 11    
Growing Degree Days 26 (Base 50)    
Moisture  
Dew Point 67 °F    
Average Humidity 71    
Maximum Humidity 88    
Minimum Humidity 53    
Precipitation  
Precipitation 0.00 in - - ()
Sea Level Pressure  
Sea Level Pressure 29.88 in    
Wind  
Wind Speed 6 mph ()    
Max Wind Speed 12 mph    
Max Gust Speed -    
Visibility 6.2 miles    
Events      
Averages and records for this station are not official NWS values.
T = Trace of Precipitation, MM = Missing Value Source: Averaged Metar Reports

Daily Weather History Graph

Daily Weather History Graph

Search for Another Location

Airport:

Trip Planner

Search our weather history database for the weather conditions in past years. The results will help you decide how hot, cold, wet, or windy it might be!

Date:

Astronomy

Nov. 29, 2013 Rise Set
Actual Time 5:25 AM CXT 6:05 PM CXT
Civil Twilight 5:02 AM CXT 6:28 PM CXT
Nautical Twilight 4:35 AM CXT 6:55 PM CXT
Astronomical Twilight 4:08 AM CXT 7:22 PM CXT
Moon 2:00 AM CXT (11/29) 2:35 PM CXT (11/29)
Length of Visible Light 13h 26m
Length of Day
12h 40m
Waning Crescent, 18% of the Moon is Illuminated
Nov 29
Waning Crescent
Dec 3
New
Dec 9
First Quarter
Dec 17
Full
Dec 25
Last Quarter

Hourly Weather History & Observations

Time (CXT) Temp. Heat Index Dew Point Humidity Pressure Visibility Wind Dir Wind Speed Gust Speed Precip Events Conditions
12:00 AM 71 °F - 67 °F 83% 29.89 in - 3.5 mph - -  
12:00 AM 71.6 °F - 66.2 °F 83% 29.92 in - North - - N/A   Unknown
1:00 AM 71 °F - 67 °F 83% 29.86 in - 3.5 mph - -  
1:00 AM 71.6 °F - 66.2 °F 83% 29.89 in - North - - N/A   Unknown
2:00 AM 73.4 °F - 68.0 °F 83% 29.86 in - North - - N/A   Scattered Clouds
3:00 AM 74 °F - 69 °F 81% 29.83 in - 5.8 mph - -  
3:00 AM 73.4 °F - 69.8 °F 88% 29.86 in - North - - N/A   Scattered Clouds
4:00 AM 74 °F - 69 °F 78% 29.83 in - 5.8 mph - -  
4:00 AM 75.2 °F - 68.0 °F 78% 29.86 in - North - - N/A   Mostly Cloudy
5:00 AM 75.2 °F - 68.0 °F 78% 29.89 in 6.2 mi North - - N/A   Scattered Clouds
6:00 AM 75 °F - 67 °F 70% 29.86 in - 5.8 mph - -  
6:00 AM 75.2 °F - 68.0 °F 78% 29.89 in - North - - N/A   Scattered Clouds
7:00 AM 77 °F - 67 °F 64% 29.88 in - 9.2 mph - -  
7:00 AM 77.0 °F - 66.2 °F 69% 29.92 in 6.2 mi North - - N/A   Scattered Clouds
8:00 AM 78.8 °F - 66.2 °F 65% 29.95 in 6.2 mi North - - N/A   Mostly Cloudy
9:00 AM 77 °F - 67 °F 63% 29.91 in - 8.1 mph - -  
9:00 AM 77.0 °F - 66.2 °F 69% 29.95 in 6.2 mi North - - N/A   Scattered Clouds
10:00 AM 79 °F - 67 °F 58% 29.91 in - 11.5 mph - -  
10:00 AM 78.8 °F - 66.2 °F 65% 29.95 in 6.2 mi North - - N/A   Mostly Cloudy
11:00 AM 82.4 °F 85.4 °F 68.0 °F 62% 29.92 in 6.2 mi North - - N/A   Unknown
12:00 PM 81 °F - 67 °F 53% 29.88 in - 10.4 mph - -  
12:00 PM 80.6 °F 82.7 °F 66.2 °F 61% 29.92 in 6.2 mi North - - N/A   Scattered Clouds
1:00 PM 81 °F - 67 °F 54% 29.85 in - 9.2 mph - -  
1:00 PM 80.6 °F 83.2 °F 68.0 °F 65% 29.89 in 6.2 mi North - - N/A   Scattered Clouds
2:00 PM 82.4 °F 84.6 °F 66.2 °F 58% 29.86 in 6.2 mi North - - N/A   Scattered Clouds
3:00 PM 80 °F - 67 °F 56% 29.82 in - 9.2 mph - -  
3:00 PM 80.6 °F 83.2 °F 68.0 °F 65% 29.86 in 6.2 mi North - - N/A   Unknown
4:00 PM 80 °F - 68 °F 58% 29.81 in - 9.2 mph - -  
4:00 PM 80.6 °F 83.2 °F 68.0 °F 65% 29.86 in 6.2 mi North - - N/A   Scattered Clouds
5:00 PM 77.0 °F - 66.2 °F 69% 29.86 in 6.2 mi North - - N/A   Scattered Clouds
6:00 PM 77 °F - 68 °F 67% 29.85 in - 5.8 mph - -   Overcast
6:00 PM 77.0 °F - 68.0 °F 74% 29.89 in 6.2 mi North - - N/A   Scattered Clouds
7:00 PM 76 °F - 68 °F 70% 29.87 in - 4.6 mph - -  
7:00 PM 75.2 °F - 68.0 °F 78% 29.89 in 6.2 mi North - - N/A   Mostly Cloudy
8:00 PM 75.2 °F - 68.0 °F 78% 29.92 in 6.2 mi North - - N/A   Scattered Clouds
9:00 PM 75 °F - 67 °F 71% 29.89 in - 5.8 mph - -  
9:00 PM 75.2 °F - 68.0 °F 78% 29.92 in 6.2 mi North - - N/A   Scattered Clouds
10:00 PM 75 °F - 67 °F 71% 29.89 in - 5.8 mph - -  
10:00 PM 75.2 °F - 68.0 °F 78% 29.92 in 6.2 mi North - - N/A   Scattered Clouds
11:00 PM 75.2 °F - 68.0 °F 78% 29.92 in 6.2 mi North - - N/A   Scattered Clouds